DW9246 Weather Reports


Display with metric or nautical units.
time (UTC)temp
F
wind
direction
speed
MPH
gust
MPH
rain 1hr
in
rain 24hr
in
rain mn
in
humidity
%
barometer
mb
20260507060021 56 350 0.0 1.0 0.00 0.00 0.00 79 1014.0
20260507055022 55 350 2.0 3.0 0.00 0.00 0.00 80 1014.0
20260507054017 54 349 2.0 3.0 0.00 0.00 0.00 80 1013.7
20260507053016 53 349 2.0 4.0 0.00 0.00 0.00 80 1013.8
20260507052017 53 349 3.0 5.0 0.00 0.00 0.00 80 1013.6
20260507051015 52 349 3.0 4.0 0.00 0.00 0.00 81 1013.6
20260507050019 52 349 3.0 4.0 0.00 0.00 0.00 81 1013.7
20260507045016 52 349 3.0 4.0 0.00 0.00 0.00 82 1013.5
20260507043017 52 349 3.0 5.0 0.00 0.00 0.00 83 1013.6
20260507041016 52 349 4.0 5.0 0.00 0.00 0.00 83 1013.7
20260507040023 53 349 3.0 4.0 0.00 0.00 0.00 84 1013.7
20260507034017 53 350 4.0 5.0 0.00 0.00 0.00 83 1013.6
20260507033016 53 350 3.0 5.0 0.00 0.00 0.00 83 1013.6
20260507031016 52 350 3.0 4.0 0.00 0.00 0.00 83 1013.5
20260507024017 53 349 3.0 5.0 0.00 0.00 0.00 82 1013.6
20260507023017 53 350 3.0 5.0 0.00 0.00 0.00 83 1013.6
20260507022016 53 349 3.0 5.0 0.00 0.00 0.00 83 1013.5
20260507021018 53 350 2.0 4.0 0.00 0.00 0.00 83 1013.5
20260507020018 53 349 3.0 5.0 0.00 0.00 0.00 83 1013.4
20260507015016 53 350 4.0 5.0 0.00 0.00 0.00 83 1013.4
20260507014016 53 349 3.0 4.0 0.00 0.00 0.00 83 1013.4
20260507013015 53 349 3.0 4.0 0.00 0.00 0.00 82 1013.4
20260507012019 53 349 3.0 4.0 0.00 0.00 0.00 83 1013.5
20260507011016 54 349 3.0 4.0 0.00 0.00 0.00 83 1013.4
20260507010017 53 349 3.0 4.0 0.00 0.00 0.00 83 1013.4
20260507005015 53 350 3.0 5.0 0.00 0.00 0.00 83 1013.6
20260507004017 53 349 3.0 4.0 0.00 0.00 0.00 83 1013.9
20260507003016 53 349 4.0 5.0 0.00 0.00 0.00 82 1013.9
20260507002015 53 349 4.0 5.0 0.00 0.00 0.00 82 1013.9
20260507001017 53 349 3.0 5.0 0.00 0.00 0.00 82 1014.0
20260507000020 53 349 4.0 5.0 0.00 0.00 0.00 82 1013.9
20260506234016 53 349 3.0 5.0 0.00 0.00 0.00 82 1014.0
20260506233018 54 349 4.0 5.0 0.00 0.00 0.00 82 1013.9
20260506231016 54 350 3.0 5.0 0.00 0.00 0.00 81 1014.0
20260506230017 54 349 3.0 5.0 0.00 0.00 0.00 81 1014.0
20260506225016 54 349 4.0 6.0 0.00 0.00 0.00 81 1013.8
20260506224019 54 349 4.0 5.0 0.00 0.00 0.00 81 1013.9
20260506223016 54 349 4.0 5.0 0.00 0.00 0.00 81 1013.8
20260506222015 54 349 4.0 5.0 0.00 0.00 0.00 81 1013.7
20260506221016 54 349 4.0 5.0 0.00 0.00 0.00 81 1013.8
20260506220018 55 349 4.0 5.0 0.00 0.00 0.00 81 1013.7
20260506215016 55 350 4.0 5.0 0.00 0.00 0.00 81 1013.9
20260506214016 55 349 3.0 5.0 0.00 0.00 0.00 80 1013.8
20260506213015 55 350 4.0 5.0 0.00 0.00 0.00 80 1013.8
20260506212016 55 356 3.0 5.0 0.00 0.00 0.00 80 1013.7
20260506211015 56 16 3.0 5.0 0.00 0.00 0.00 79 1013.7
20260506205016 56 10 3.0 5.0 0.00 0.00 0.00 80 1013.7
20260506204015 56 349 3.0 4.0 0.00 0.00 0.00 80 1013.6
20260506203016 56 349 3.0 5.0 0.00 0.00 0.00 80 1013.3
20260506200015 56 354 2.0 4.0 0.00 0.00 0.00 79 1013.0
20260506195015 57 350 3.0 4.0 0.00 0.00 0.00 79 1012.8
20260506194015 57 345 2.0 4.0 0.00 0.00 0.00 79 1012.7
20260506193015 58 271 2.0 4.0 0.00 0.00 0.00 78 1012.4
20260506192014 59 169 1.0 5.0 0.00 0.00 0.00 77 1012.5
20260506190019 60 156 2.0 6.0 0.00 0.00 0.00 76 1012.3
20260506185015 60 196 2.0 7.0 0.00 0.00 0.00 76 1012.1
20260506184016 61 168 3.0 7.0 0.00 0.00 0.00 75 1011.8
20260506183015 62 175 2.0 4.0 0.00 0.00 0.00 73 1011.9
20260506182015 62 177 3.0 8.0 0.00 0.00 0.00 72 1011.8
20260506181015 62 190 5.0 10.0 0.00 0.00 0.00 70 1011.7
20260506175015 63 197 5.0 11.0 0.00 0.00 0.00 68 1011.4
20260506174015 63 194 7.0 15.0 0.00 0.00 0.00 66 1011.5
20260506173015 64 196 6.0 16.0 0.00 0.00 0.00 67 1011.4
20260506172015 64 194 8.0 15.0 0.00 0.00 0.00 64 1011.4
20260506171017 65 189 7.0 13.0 0.00 0.00 0.00 69 1011.4
20260506170016 65 182 7.0 14.0 0.00 0.00 0.00 66 1011.2
20260506164015 66 140 7.0 13.0 0.00 0.00 0.00 63 1011.1
20260506163016 67 150 8.0 12.0 0.00 0.00 0.00 63 1011.1
20260506162015 67 135 6.0 11.0 0.00 0.01 0.00 62 1011.1
20260506161015 66 146 6.0 12.0 0.00 0.02 0.00 63 1011.1
20260506160015 67 159 7.0 11.0 0.00 0.02 0.00 58 1011.1
20260506155014 67 130 5.0 9.0 0.00 0.02 0.00 60 1011.0
20260506154015 66 162 4.0 7.0 0.00 0.02 0.00 58 1011.0
20260506150015 66 161 4.0 11.0 0.00 0.02 0.00 58 1011.3
20260506145015 66 156 6.0 13.0 0.00 0.02 0.00 57 1011.3
20260506144015 65 131 4.0 8.0 0.00 0.02 0.00 59 1011.3
20260506143014 65 153 6.0 10.0 0.00 0.02 0.00 60 1011.5
20260506142015 66 161 7.0 13.0 0.00 0.02 0.00 60 1011.5
20260506141015 66 164 9.0 17.0 0.00 0.02 0.00 59 1011.6
20260506140016 66 166 9.0 15.0 0.00 0.02 0.00 60 1011.7
20260506135014 65 160 11.0 17.0 0.00 0.02 0.00 61 1011.8
20260506134015 66 143 9.0 17.0 0.00 0.02 0.00 62 1011.7
20260506133017 66 128 8.0 14.0 0.00 0.02 0.00 60 1011.7
20260506132015 66 138 8.0 21.0 0.00 0.02 0.00 60 1011.9
20260506131016 68 127 6.0 17.0 0.00 0.02 0.00 56 1011.6
20260506130016 67 339 4.0 9.0 0.00 0.02 0.00 52 1012.0
20260506125014 68 301 5.0 11.0 0.00 0.02 0.00 52 1012.2
20260506124014 67 239 7.0 15.0 0.00 0.02 0.00 53 1012.2
20260506123014 67 249 7.0 17.0 0.00 0.02 0.00 52 1012.2
20260506122015 67 233 7.0 14.0 0.00 0.02 0.00 53 1012.2
20260506121015 65 270 7.0 14.0 0.00 0.02 0.00 54 1012.3
20260506114014 66 259 7.0 16.0 0.00 0.02 0.00 55 1012.5
20260506113014 66 256 7.0 14.0 0.00 0.02 0.00 56 1012.5
20260506111014 65 345 5.0 13.0 0.00 0.02 0.00 55 1012.6
20260506110015 64 23 5.0 10.0 0.00 0.02 0.00 59 1012.7
20260506104014 65 171 3.0 9.0 0.00 0.02 0.00 59 1012.9
20260506103014 64 130 5.0 11.0 0.00 0.02 0.00 61 1012.9
20260506101014 63 156 5.0 11.0 0.00 0.02 0.00 59 1013.1
20260506100015 63 134 4.0 9.0 0.00 0.02 0.00 60 1013.1
20260506094014 63 138 7.0 13.0 0.00 0.02 0.00 62 1013.3
20260506093015 63 112 7.0 14.0 0.00 0.02 0.00 62 1013.2
20260506092014 62 83 9.0 14.0 0.00 0.02 0.00 59 1013.1
20260506091014 62 91 7.0 14.0 0.00 0.02 0.00 58 1012.9
20260506090017 62 290 4.0 12.0 0.00 0.02 0.00 57 1012.9
20260506083015 60 301 5.0 11.0 0.00 0.02 0.00 59 1012.7
20260506082014 60 327 5.0 16.0 0.00 0.02 0.00 61 1012.7
20260506081015 59 280 4.0 10.0 0.00 0.02 0.00 61 1012.5
20260506073015 57 220 3.0 12.0 0.00 0.02 0.00 68 1012.5
20260506072015 56 186 4.0 8.0 0.00 0.02 0.00 69 1012.5
20260506071015 56 177 2.0 6.0 0.00 0.02 0.00 70 1012.4
20260506062014 55 76 2.0 4.0 0.00 0.02 0.00 71 1012.2
20260506061021 54 109 2.0 4.0 0.00 0.02 0.00 73 1012.1